| time (UTC) | temp C | wind direction | speed KPH | gust KPH | rain 1hr cm | rain 24hr cm | rain mn cm | humidity % | barometer mb |
| 20260505010726 | 19 | 193 | 11.3 | 24.1 | 0.00 | 0.00 | 0.00 | 51 | 1006.3 |
| 20260505010223 | 19 | 193 | 11.3 | 24.1 | 0.00 | 0.00 | 0.00 | 51 | 1006.3 |
| 20260505005720 | 19 | 114 | 6.4 | 19.3 | 0.00 | 0.00 | 0.00 | 51 | 1006.4 |
| 20260505005217 | 19 | 197 | 12.9 | 12.9 | 0.00 | 0.00 | 0.00 | 51 | 1006.4 |
| 20260505004714 | 20 | 142 | 12.9 | 16.1 | 0.00 | 0.00 | 0.00 | 50 | 1006.1 |
| 20260505004210 | 20 | 244 | 11.3 | 16.1 | 0.00 | 0.00 | 0.00 | 50 | 1006.2 |
| 20260505003708 | 20 | 228 | 11.3 | 17.7 | 0.00 | 0.00 | 0.00 | 49 | 1006.1 |
| 20260505003206 | 20 | 203 | 4.8 | 19.3 | 0.00 | 0.00 | 0.00 | 49 | 1006.0 |
| 20260505002701 | 20 | 247 | 9.7 | 12.9 | 0.00 | 0.00 | 0.00 | 49 | 1005.9 |
| 20260505002159 | 20 | 218 | 4.8 | 8.0 | 0.00 | 0.00 | 0.00 | 48 | 1005.8 |
| 20260505001656 | 20 | 174 | 11.3 | 22.5 | 0.00 | 0.00 | 0.00 | 48 | 1005.7 |
| 20260505001154 | 20 | 238 | 8.0 | 11.3 | 0.00 | 0.00 | 0.00 | 47 | 1005.7 |
| 20260505000650 | 20 | 186 | 9.7 | 22.5 | 0.00 | 0.00 | 0.00 | 47 | 1005.7 |
| 20260505000148 | 20 | 276 | 11.3 | 17.7 | 0.00 | 0.00 | 0.00 | 47 | 1005.6 |
| 20260504235644 | 20 | 261 | 9.7 | 12.9 | 0.00 | 0.00 | 0.00 | 47 | 1005.5 |
| 20260504235141 | 20 | 213 | 6.4 | 11.3 | 0.00 | 0.00 | 0.00 | 48 | 1005.5 |
| 20260504234638 | 20 | 202 | 6.4 | 17.7 | 0.00 | 0.00 | 0.00 | 47 | 1005.5 |
| 20260504234130 | 21 | 213 | 19.3 | 29.0 | 0.00 | 0.00 | 0.00 | 46 | 1005.5 |
| 20260504233625 | 21 | 202 | 14.5 | 24.1 | 0.00 | 0.00 | 0.00 | 47 | 1005.3 |
| 20260504233121 | 21 | 175 | 9.7 | 16.1 | 0.00 | 0.00 | 0.00 | 48 | 1005.5 |
| 20260504232620 | 21 | 276 | 12.9 | 19.3 | 0.00 | 0.00 | 0.00 | 46 | 1005.5 |
| 20260504232116 | 21 | 237 | 20.9 | 29.0 | 0.00 | 0.00 | 0.00 | 47 | 1005.4 |
| 20260504231613 | 21 | 224 | 4.8 | 12.9 | 0.00 | 0.00 | 0.00 | 47 | 1005.5 |
| 20260504231109 | 21 | 196 | 11.3 | 25.7 | 0.00 | 0.00 | 0.00 | 46 | 1005.4 |
| 20260504230605 | 21 | 263 | 22.5 | 35.4 | 0.00 | 0.00 | 0.00 | 46 | 1005.6 |
| 20260504230104 | 21 | 215 | 11.3 | 17.7 | 0.00 | 0.00 | 0.00 | 46 | 1005.5 |
| 20260504225602 | 21 | 217 | 9.7 | 22.5 | 0.00 | 0.00 | 0.00 | 46 | 1005.8 |
| 20260504225058 | 21 | 242 | 17.7 | 22.5 | 0.00 | 0.00 | 0.00 | 47 | 1005.7 |
| 20260504224555 | 21 | 227 | 6.4 | 17.7 | 0.00 | 0.00 | 0.00 | 47 | 1005.8 |
| 20260504224052 | 21 | 218 | 4.8 | 17.7 | 0.00 | 0.00 | 0.00 | 48 | 1005.9 |
| 20260504223549 | 21 | 206 | 9.7 | 11.3 | 0.00 | 0.00 | 0.00 | 48 | 1005.8 |
| 20260504223044 | 21 | 185 | 8.0 | 19.3 | 0.00 | 0.00 | 0.00 | 47 | 1006.0 |
| 20260504222542 | 21 | 202 | 11.3 | 22.5 | 0.00 | 0.00 | 0.00 | 47 | 1006.1 |
| 20260504222039 | 21 | 265 | 17.7 | 24.1 | 0.00 | 0.00 | 0.00 | 46 | 1006.0 |
| 20260504221536 | 21 | 225 | 9.7 | 24.1 | 0.00 | 0.00 | 0.00 | 47 | 1006.1 |
| 20260504221033 | 21 | 203 | 6.4 | 22.5 | 0.00 | 0.00 | 0.00 | 47 | 1006.1 |
| 20260504220529 | 21 | 215 | 17.7 | 22.5 | 0.00 | 0.00 | 0.00 | 46 | 1006.2 |
| 20260504220026 | 21 | 216 | 4.8 | 11.3 | 0.00 | 0.00 | 0.00 | 48 | 1006.1 |
| 20260504215523 | 21 | 206 | 8.0 | 12.9 | 0.00 | 0.00 | 0.00 | 47 | 1006.2 |
| 20260504215020 | 21 | 219 | 9.7 | 30.6 | 0.00 | 0.00 | 0.00 | 46 | 1006.1 |
| 20260504214516 | 21 | 209 | 6.4 | 16.1 | 0.00 | 0.00 | 0.00 | 46 | 1006.1 |
| 20260504214012 | 22 | 222 | 11.3 | 29.0 | 0.00 | 0.00 | 0.00 | 45 | 1006.0 |
| 20260504213509 | 22 | 231 | 17.7 | 29.0 | 0.00 | 0.00 | 0.00 | 44 | 1006.0 |
| 20260504213007 | 22 | 209 | 11.3 | 19.3 | 0.00 | 0.00 | 0.00 | 45 | 1006.3 |
| 20260504212502 | 22 | 273 | 12.9 | 19.3 | 0.00 | 0.00 | 0.00 | 45 | 1006.3 |
| 20260504212000 | 21 | 264 | 4.8 | 6.4 | 0.00 | 0.00 | 0.00 | 47 | 1006.2 |
| 20260504211456 | 21 | 274 | 8.0 | 24.1 | 0.00 | 0.00 | 0.00 | 45 | 1006.4 |
| 20260504210954 | 21 | 226 | 14.5 | 29.0 | 0.00 | 0.00 | 0.00 | 45 | 1006.2 |
| 20260504210450 | 21 | 227 | 17.7 | 19.3 | 0.00 | 0.00 | 0.00 | 44 | 1006.4 |
| 20260504205947 | 21 | 190 | 14.5 | 24.1 | 0.00 | 0.00 | 0.00 | 44 | 1006.3 |
| 20260504205445 | 21 | 241 | 14.5 | 24.1 | 0.00 | 0.00 | 0.00 | 45 | 1006.5 |
| 20260504204943 | 22 | 264 | 6.4 | 24.1 | 0.00 | 0.00 | 0.00 | 44 | 1006.2 |
| 20260504204441 | 21 | 210 | 9.7 | 16.1 | 0.00 | 0.00 | 0.00 | 44 | 1006.3 |
| 20260504203940 | 21 | 210 | 17.7 | 22.5 | 0.00 | 0.00 | 0.00 | 43 | 1006.4 |
| 20260504203437 | 22 | 236 | 14.5 | 19.3 | 0.00 | 0.00 | 0.00 | 42 | 1006.6 |
| 20260504202933 | 22 | 264 | 8.0 | 11.3 | 0.00 | 0.00 | 0.00 | 45 | 1006.4 |
| 20260504202430 | 22 | 206 | 8.0 | 19.3 | 0.00 | 0.00 | 0.00 | 43 | 1006.4 |
| 20260504201926 | 22 | 147 | 8.0 | 17.7 | 0.00 | 0.00 | 0.00 | 42 | 1006.5 |
| 20260504201424 | 22 | 171 | 11.3 | 17.7 | 0.00 | 0.00 | 0.00 | 41 | 1006.6 |
| 20260504200921 | 22 | 226 | 8.0 | 22.5 | 0.00 | 0.00 | 0.00 | 43 | 1006.4 |
| 20260504200418 | 22 | 213 | 14.5 | 24.1 | 0.00 | 0.00 | 0.00 | 42 | 1006.6 |
| 20260504195915 | 22 | 215 | 9.7 | 12.9 | 0.00 | 0.00 | 0.00 | 42 | 1006.7 |
| 20260504195410 | 22 | 219 | 9.7 | 16.1 | 0.00 | 0.00 | 0.00 | 45 | 1006.9 |
| 20260504194907 | 22 | 213 | 9.7 | 17.7 | 0.00 | 0.00 | 0.00 | 42 | 1006.7 |
| 20260504194403 | 22 | 194 | 12.9 | 22.5 | 0.00 | 0.00 | 0.00 | 42 | 1006.9 |
| 20260504193859 | 22 | 214 | 11.3 | 22.5 | 0.00 | 0.00 | 0.00 | 45 | 1006.9 |
| 20260504193356 | 21 | 201 | 14.5 | 19.3 | 0.00 | 0.00 | 0.00 | 43 | 1007.1 |
| 20260504192855 | 21 | 224 | 14.5 | 19.3 | 0.00 | 0.00 | 0.00 | 43 | 1007.4 |
| 20260504192352 | 21 | 220 | 11.3 | 19.3 | 0.00 | 0.00 | 0.00 | 45 | 1007.1 |
| 20260504191850 | 21 | 212 | 12.9 | 24.1 | 0.00 | 0.00 | 0.00 | 45 | 1007.4 |
| 20260504191348 | 21 | 260 | 16.1 | 22.5 | 0.00 | 0.00 | 0.00 | 41 | 1007.4 |
| 20260504190843 | 21 | 177 | 12.9 | 19.3 | 0.00 | 0.00 | 0.00 | 44 | 1007.6 |
| 20260504190339 | 21 | 187 | 16.1 | 24.1 | 0.00 | 0.00 | 0.00 | 45 | 1007.6 |
| 20260504185836 | 21 | 233 | 4.8 | 11.3 | 0.00 | 0.00 | 0.00 | 45 | 1007.5 |
| 20260504185333 | 21 | 198 | 8.0 | 12.9 | 0.00 | 0.00 | 0.00 | 43 | 1007.6 |
| 20260504184829 | 21 | 261 | 8.0 | 29.0 | 0.00 | 0.00 | 0.00 | 43 | 1007.7 |
| 20260504184326 | 21 | 154 | 8.0 | 16.1 | 0.00 | 0.00 | 0.00 | 45 | 1007.9 |
| 20260504183821 | 21 | 223 | 9.7 | 19.3 | 0.00 | 0.00 | 0.00 | 44 | 1007.7 |
| 20260504183319 | 20 | 207 | 16.1 | 25.7 | 0.00 | 0.00 | 0.00 | 44 | 1007.8 |
| 20260504182817 | 20 | 116 | 17.7 | 19.3 | 0.00 | 0.00 | 0.00 | 43 | 1007.7 |
| 20260504182314 | 20 | 214 | 14.5 | 24.1 | 0.00 | 0.00 | 0.00 | 43 | 1007.9 |
| 20260504181811 | 20 | 277 | 6.4 | 22.5 | 0.00 | 0.00 | 0.00 | 44 | 1008.0 |
| 20260504181308 | 20 | 247 | 12.9 | 25.7 | 0.00 | 0.00 | 0.00 | 42 | 1008.2 |
| 20260504180807 | 21 | 232 | 16.1 | 25.7 | 0.00 | 0.00 | 0.00 | 43 | 1008.0 |
| 20260504180305 | 20 | 182 | 8.0 | 24.1 | 0.00 | 0.00 | 0.00 | 42 | 1008.2 |
| 20260504175803 | 20 | 55 | 8.0 | 19.3 | 0.00 | 0.00 | 0.00 | 43 | 1008.1 |
| 20260504175259 | 20 | 231 | 11.3 | 19.3 | 0.00 | 0.00 | 0.00 | 42 | 1008.1 |
| 20260504174757 | 20 | 310 | 12.9 | 25.7 | 0.00 | 0.00 | 0.00 | 41 | 1008.2 |
| 20260504174255 | 20 | 247 | 14.5 | 19.3 | 0.00 | 0.00 | 0.00 | 47 | 1008.3 |
| 20260504173751 | 20 | 124 | 9.7 | 24.1 | 0.00 | 0.00 | 0.00 | 42 | 1008.2 |
| 20260504173248 | 20 | 165 | 8.0 | 12.9 | 0.00 | 0.00 | 0.00 | 42 | 1008.3 |
| 20260504172745 | 20 | 152 | 8.0 | 17.7 | 0.00 | 0.00 | 0.00 | 44 | 1008.3 |
| 20260504172242 | 20 | 168 | 11.3 | 24.1 | 0.00 | 0.00 | 0.00 | 42 | 1008.6 |
| 20260504171738 | 20 | 205 | 8.0 | 19.3 | 0.00 | 0.00 | 0.00 | 43 | 1008.3 |
| 20260504171235 | 20 | 286 | 8.0 | 16.1 | 0.00 | 0.00 | 0.00 | 46 | 1008.5 |
| 20260504170732 | 20 | 126 | 3.2 | 17.7 | 0.00 | 0.00 | 0.00 | 45 | 1008.6 |
| 20260504170229 | 20 | 166 | 12.9 | 24.1 | 0.00 | 0.00 | 0.00 | 43 | 1008.5 |
| 20260504160147 | 18 | 217 | 8.0 | 24.1 | 0.00 | 0.00 | 0.00 | 45 | 1009.3 |
| 20260504151115 | 17 | 265 | 12.9 | 19.3 | 0.00 | 0.00 | 0.00 | 47 | 1009.9 |
| 20260504150613 | 16 | 214 | 11.3 | 24.1 | 0.00 | 0.00 | 0.00 | 50 | 1009.7 |
| 20260504150109 | 16 | 242 | 12.9 | 24.1 | 0.00 | 0.00 | 0.00 | 49 | 1009.8 |
| 20260504141038 | 15 | 216 | 6.4 | 12.9 | 0.00 | 0.00 | 0.00 | 48 | 1009.7 |
| 20260504140534 | 15 | 63 | 1.6 | 17.7 | 0.00 | 0.00 | 0.00 | 50 | 1009.9 |
| 20260504130459 | 13 | 237 | 4.8 | 12.9 | 0.00 | 0.00 | 0.00 | 50 | 1010.3 |
| 20260504110345 | 10 | 208 | 6.4 | 8.0 | 0.00 | 0.00 | 0.00 | 56 | 1010.3 |
| 20260504100303 | 9 | 229 | 4.8 | 6.4 | 0.00 | 0.00 | 0.00 | 58 | 1010.1 |
| 20260504081656 | 10 | 221 | 4.8 | 11.3 | 0.00 | 0.00 | 0.00 | 54 | 1010.8 |
| 20260504081152 | 10 | 170 | 4.8 | 11.3 | 0.00 | 0.00 | 0.00 | 53 | 1010.8 |
| 20260504080649 | 10 | 142 | 4.8 | 16.1 | 0.00 | 0.00 | 0.00 | 53 | 1010.8 |
| 20260504080145 | 10 | 218 | 6.4 | 12.9 | 0.00 | 0.00 | 0.00 | 54 | 1010.9 |
| 20260504070113 | 10 | 258 | 12.9 | 19.3 | 0.00 | 0.00 | 0.00 | 53 | 1011.8 |
| 20260504050502 | 10 | 195 | 4.8 | 6.4 | 0.00 | 0.00 | 0.00 | 58 | 1013.1 |
| 20260504045959 | 10 | 228 | 3.2 | 8.0 | 0.00 | 0.00 | 0.00 | 58 | 1013.1 |
| 20260504045455 | 10 | 180 | 3.2 | 4.8 | 0.00 | 0.00 | 0.00 | 58 | 1013.1 |
| 20260504044951 | 10 | 212 | 1.6 | 1.6 | 0.00 | 0.00 | 0.00 | 58 | 1013.0 |
| 20260504044448 | 10 | 144 | 4.8 | 6.4 | 0.00 | 0.00 | 0.00 | 58 | 1013.1 |
| 20260504043946 | 10 | 215 | 1.6 | 11.3 | 0.00 | 0.00 | 0.00 | 57 | 1013.1 |
| 20260504043442 | 10 | 189 | 4.8 | 6.4 | 0.00 | 0.00 | 0.00 | 57 | 1013.2 |
| 20260504042940 | 10 | 167 | 3.2 | 6.4 | 0.00 | 0.00 | 0.00 | 57 | 1013.3 |
| 20260504042436 | 10 | 216 | 8.0 | 8.0 | 0.00 | 0.00 | 0.00 | 56 | 1013.4 |
| 20260504041933 | 10 | 196 | 1.6 | 4.8 | 0.00 | 0.00 | 0.00 | 57 | 1013.3 |
| 20260504041429 | 10 | 191 | 1.6 | 4.8 | 0.00 | 0.00 | 0.00 | 56 | 1013.2 |
| 20260504040925 | 10 | 214 | 3.2 | 6.4 | 0.00 | 0.00 | 0.00 | 56 | 1013.4 |
| 20260504040424 | 10 | 200 | 1.6 | 1.6 | 0.00 | 0.00 | 0.00 | 56 | 1013.4 |
| 20260504035919 | 10 | 203 | 3.2 | 4.8 | 0.00 | 0.00 | 0.00 | 55 | 1013.4 |
| 20260504035417 | 10 | 222 | 4.8 | 4.8 | 0.00 | 0.00 | 0.00 | 55 | 1013.5 |
| 20260504034914 | 10 | 195 | 3.2 | 1.6 | 0.00 | 0.00 | 0.00 | 55 | 1013.4 |
| 20260504034412 | 10 | 213 | 1.6 | 1.6 | 0.00 | 0.00 | 0.00 | 56 | 1013.4 |
| 20260504033908 | 10 | 214 | 3.2 | 1.6 | 0.00 | 0.00 | 0.00 | 54 | 1013.5 |
| 20260504033406 | 10 | 226 | 3.2 | 6.4 | 0.00 | 0.00 | 0.00 | 54 | 1013.7 |
| 20260504032902 | 10 | 204 | 4.8 | 6.4 | 0.00 | 0.00 | 0.00 | 54 | 1013.7 |
| 20260504032359 | 10 | 178 | 1.6 | 1.6 | 0.00 | 0.00 | 0.00 | 54 | 1013.8 |
| 20260504031855 | 10 | 212 | 4.8 | 8.0 | 0.00 | 0.00 | 0.00 | 53 | 1013.7 |
| 20260504031353 | 10 | 221 | 4.8 | 6.4 | 0.00 | 0.00 | 0.00 | 54 | 1013.8 |
| 20260504030849 | 10 | 221 | 4.8 | 8.0 | 0.00 | 0.00 | 0.00 | 52 | 1013.9 |
| 20260504030347 | 10 | 289 | 0.0 | 0.0 | 0.00 | 0.00 | 0.00 | 53 | 1014.2 |
| 20260504025842 | 10 | 297 | 1.6 | 11.3 | 0.00 | 0.00 | 0.00 | 52 | 1014.1 |
| 20260504025340 | 10 | 213 | 3.2 | 6.4 | 0.00 | 0.00 | 0.00 | 52 | 1014.0 |
| 20260504024836 | 10 | 245 | 3.2 | 11.3 | 0.00 | 0.00 | 0.00 | 52 | 1014.0 |
| 20260504024333 | 10 | 310 | 4.8 | 11.3 | 0.00 | 0.00 | 0.00 | 51 | 1014.3 |
| 20260504023829 | 10 | 241 | 6.4 | 11.3 | 0.00 | 0.00 | 0.00 | 51 | 1014.1 |
| 20260504023327 | 10 | 179 | 3.2 | 6.4 | 0.00 | 0.00 | 0.00 | 51 | 1014.3 |
| 20260504022822 | 10 | 226 | 6.4 | 8.0 | 0.00 | 0.00 | 0.00 | 51 | 1014.1 |
| 20260504022319 | 9 | 223 | 4.8 | 6.4 | 0.00 | 0.00 | 0.00 | 52 | 1014.1 |
| 20260504021816 | 9 | 211 | 3.2 | 4.8 | 0.00 | 0.00 | 0.00 | 52 | 1013.8 |
| 20260504021314 | 9 | 189 | 1.6 | 1.6 | 0.00 | 0.00 | 0.00 | 51 | 1013.8 |
| 20260504020810 | 9 | 189 | 1.6 | 1.6 | 0.00 | 0.00 | 0.00 | 51 | 1013.7 |
| 20260504020307 | 10 | 188 | 1.6 | 1.6 | 0.00 | 0.00 | 0.00 | 51 | 1013.8 |
| 20260504015802 | 10 | 189 | 1.6 | 1.6 | 0.00 | 0.00 | 0.00 | 51 | 1013.7 |
| 20260504015259 | 10 | 189 | 1.6 | 1.6 | 0.00 | 0.00 | 0.00 | 49 | 1013.7 |
| 20260504014755 | 10 | 190 | 1.6 | 1.6 | 0.00 | 0.00 | 0.00 | 49 | 1013.5 |
| 20260504014251 | 10 | 187 | 0.0 | 1.6 | 0.00 | 0.00 | 0.00 | 48 | 1013.5 |
| 20260504013749 | 10 | 183 | 1.6 | 1.6 | 0.00 | 0.00 | 0.00 | 48 | 1013.4 |
| 20260504013247 | 10 | 183 | 3.2 | 1.6 | 0.00 | 0.00 | 0.00 | 48 | 1013.3 |
| 20260504012743 | 10 | 186 | 0.0 | 1.6 | 0.00 | 0.00 | 0.00 | 47 | 1013.3 |
| 20260504012241 | 11 | 198 | 1.6 | 1.6 | 0.00 | 0.00 | 0.00 | 46 | 1013.4 |
| 20260504011737 | 11 | 197 | 1.6 | 1.6 | 0.00 | 0.00 | 0.00 | 44 | 1013.5 |
| 20260504011235 | 11 | 253 | 1.6 | 4.8 | 0.00 | 0.00 | 0.00 | 45 | 1013.2 |